QPF
0.00 0.00 0.00 0.00 0.00 0.00 0.00 0.00 0.00 0.00 0.00 0.00 0.00 0.00 0.00 0.00 0.00 0.00 0.00 0.00 0.00 0.00 0.00 0.00 0.00 0.00 0.00 0.00 0.00 0.00 0.00 0.00 0.00 0.00 0.00 0.00 0.00 0.00 0.00 0.00 0.00 0.00 0.00
0.00 0.00 0.00 0.00 0.00 0.00 0.00 0.00 0.00 0.00 0.00 0.00 0.00 0.00 0.00 0.00 0.00 0.00 0.00 0.00 0.00 0.00 0.00 0.00 0.00 0.00 0.00 0.00 0.00 0.00 0.00 0.00 0.00 0.00 0.00 0.00 0.00 0.00 0.00 0.00 0.00 0.00 0.00
0.00 0.00 0.00 0.00 0.00 0.00 0.00 0.00 0.00 0.00 0.00 0.00 0.00 0.00 0.00 0.00 0.00 0.00 0.00 0.00 0.00 0.00 0.00 0.00 0.00 0.00 0.00 0.00 0.00 0.00 0.00 0.00 0.00 0.00 0.00 0.00 0.00 0.00 0.00 0.00 0.00 0.00 0.00
0.00 0.00 0.00 0.00 0.00 0.00 0.00 0.00 0.00 0.00 0.00 0.00 0.00 0.00 0.00 0.00 0.00 0.00 0.00 0.00 0.00 0.00 0.00 0.00 0.00 0.00 0.00 0.00 0.00 0.00 0.00 0.00 0.00 0.00 0.00 0.00 0.00 0.00 0.00 0.00 0.00 0.00 0.00
0.01 0.00 0.00 0.00 0.00 0.00 0.00 0.00 0.00 0.00 0.00 0.00 0.00 0.00 0.00 0.00 0.00 0.00 0.00 0.00 0.00 0.00 0.00 0.00 0.00 0.00 0.00 0.00 0.00 0.00 0.00 0.00 0.00 0.00 0.00 0.00 0.00 0.00 0.00 0.00 0.00 0.00 0.00
0.02 0.02 0.01 0.00 0.00 0.00 0.00 0.00 0.00 0.00 0.00 0.00 0.00 0.00 0.00 0.00 0.00 0.00 0.00 0.00 0.00 0.00 0.00 0.00 0.00 0.00 0.00 0.00 0.00 0.00 0.00 0.00 0.00 0.00 0.00 0.00 0.00 0.00 0.00 0.00 0.00 0.00 0.00
0.04 0.03 0.02 0.01 0.00 0.00 0.00 0.00 0.00 0.00 0.00 0.00 0.00 0.00 0.00 0.00 0.00 0.00 0.00 0.00 0.00 0.00 0.00 0.00 0.00 0.00 0.00 0.00 0.00 0.00 0.00 0.00 0.00 0.00 0.00 0.00 0.00 0.00 0.00 0.00 0.00 0.00 0.00
0.04 0.04 0.03 0.02 0.02 0.01 0.00 0.00 0.00 0.00 0.00 0.00 0.00 0.00 0.00 0.00 0.00 0.00 0.00 0.00 0.00 0.00 0.00 0.00 0.00 0.00 0.00 0.00 0.00 0.00 0.00 0.00 0.00 0.00 0.00 0.00 0.00 0.00 0.00 0.00 0.00 0.01 0.01
0.02 0.03 0.05 0.04 0.04 0.03 0.01 0.01 0.00 0.00 0.00 0.00 0.00 0.00 0.00 0.00 0.00 0.00 0.00 0.00 0.00 0.00 0.00 0.00 0.00 0.00 0.00 0.00 0.00 0.00 0.00 0.00 0.00 0.00 0.00 0.00 0.00 0.00 0.00 0.00 0.01 0.01 0.01
0.03 0.05 0.07 0.08 0.08 0.06 0.04 0.03 0.02 0.01 0.00 0.00 0.00 0.00 0.00 0.00 0.00 0.00 0.00 0.00 0.00 0.00 0.00 0.00 0.00 0.00 0.00 0.00 0.00 0.00 0.00 0.00 0.00 0.00 0.00 0.00 0.00 0.00 0.00 0.00 0.01 0.01 0.01
0.03 0.05 0.06 0.08 0.09 0.08 0.07 0.07 0.05 0.03 0.02 0.01 0.00 0.00 0.00 0.00 0.00 0.00 0.00 0.00 0.00 0.00 0.00 0.00 0.00 0.00 0.00 0.00 0.00 0.00 0.00 0.00 0.00 0.00 0.00 0.00 0.00 0.00 0.00 0.01 0.01 0.01 0.01
0.02 0.03 0.05 0.06 0.08 0.09 0.11 0.11 0.11 0.08 0.06 0.03 0.01 0.01 0.00 0.00 0.00 0.00 0.00 0.00 0.00 0.00 0.00 0.00 0.00 0.00 0.00 0.00 0.00 0.00 0.00 0.00 0.00 0.00 0.00 0.00 0.00 0.00 0.00 0.00 0.01 0.01 0.01
0.01 0.01 0.03 0.05 0.07 0.11 0.15 0.17 0.16 0.14 0.11 0.07 0.04 0.03 0.01 0.01 0.00 0.00 0.00 0.00 0.00 0.00 0.00 0.00 0.00 0.00 0.00 0.00 0.00 0.00 0.00 0.00 0.00 0.00 0.00 0.00 0.00 0.00 0.00 0.00 0.00 0.00 0.01
0.01 0.02 0.04 0.06 0.10 0.13 0.16 0.17 0.18 0.18 0.16 0.12 0.08 0.05 0.03 0.01 0.01 0.00 0.00 0.00 0.00 0.00 0.00 0.00 0.00 0.00 0.00 0.00 0.00 0.00 0.00 0.00 0.00 0.00 0.00 0.00 0.00 0.00 0.00 0.00 0.00 0.00 0.00
0.01 0.02 0.03 0.05 0.07 0.09 0.11 0.14 0.16 0.17 0.16 0.13 0.10 0.07 0.05 0.03 0.02 0.01 0.01 0.01 0.01 0.01 0.01 0.01 0.01 0.01 0.01 0.01 0.00 0.00 0.00 0.00 0.00 0.00 0.00 0.00 0.00 0.00 0.00 0.00 0.00 0.00 0.01
0.01 0.02 0.02 0.03 0.05 0.06 0.08 0.10 0.12 0.12 0.13 0.11 0.09 0.08 0.06 0.05 0.04 0.04 0.03 0.04 0.04 0.05 0.05 0.04 0.03 0.02 0.01 0.01 0.00 0.00 0.00 0.00 0.00 0.00 0.00 0.00 0.00 0.00 0.00 0.00 0.00 0.01 0.01
0.01 0.02 0.02 0.03 0.03 0.04 0.05 0.06 0.06 0.07 0.08 0.08 0.08 0.08 0.08 0.08 0.08 0.07 0.07 0.07 0.08 0.07 0.06 0.04 0.03 0.02 0.01 0.01 0.01 0.00 0.00 0.00 0.00 0.00 0.00 0.00 0.00 0.00 0.00 0.00 0.00 0.00 0.01
0.01 0.01 0.02 0.02 0.03 0.03 0.04 0.04 0.04 0.04 0.05 0.06 0.07 0.09 0.10 0.11 0.12 0.12 0.12 0.12 0.11 0.09 0.07 0.05 0.03 0.02 0.02 0.01 0.01 0.00 0.00 0.00 0.00 0.00 0.00 0.00 0.00 0.00 0.00 0.00 0.00 0.00 0.01
0.01 0.01 0.02 0.02 0.02 0.03 0.03 0.03 0.03 0.03 0.04 0.06 0.07 0.09 0.10 0.12 0.13 0.13 0.12 0.12 0.10 0.08 0.06 0.04 0.03 0.01 0.01 0.00 0.00 0.00 0.00 0.00 0.00 0.00 0.00 0.00 0.00 0.00 0.00 0.00 0.00 0.00 0.00
0.01 0.01 0.01 0.01 0.01 0.02 0.02 0.02 0.03 0.04 0.05 0.06 0.07 0.08 0.10 0.11 0.13 0.13 0.13 0.12 0.10 0.07 0.05 0.03 0.02 0.01 0.00 0.00 0.00 0.00 0.00 0.00 0.00 0.00 0.00 0.00 0.00 0.00 0.00 0.00 0.00 0.00 0.00
0.01 0.01 0.01 0.02 0.02 0.02 0.02 0.02 0.03 0.04 0.06 0.08 0.10 0.11 0.13 0.15 0.15 0.14 0.11 0.09 0.06 0.04 0.03 0.02 0.01 0.00 0.00 0.00 0.00 0.00 0.00 0.00 0.00 0.00 0.00 0.00 0.00 0.00 0.00 0.00 0.00 0.00 0.00
0.01 0.01 0.02 0.02 0.03 0.04 0.07 0.07 0.05 0.06 0.08 0.10 0.12 0.13 0.14 0.15 0.13 0.10 0.07 0.05 0.03 0.02 0.02 0.01 0.00 0.00 0.00 0.00 0.00 0.00 0.00 0.00 0.00 0.00 0.00 0.00 0.00 0.00 0.00 0.00 0.00 0.00 0.00
0.03 0.05 0.05 0.07 0.07 0.10 0.13 0.12 0.11 0.09 0.11 0.14 0.15 0.14 0.12 0.10 0.07 0.05 0.03 0.02 0.01 0.01 0.01 0.00 0.00 0.00 0.00 0.00 0.00 0.00 0.00 0.01 0.01 0.00 0.00 0.00 0.00 0.00 0.00 0.00 0.00 0.00 0.00
0.08 0.12 0.14 0.15 0.16 0.19 0.18 0.15 0.14 0.13 0.14 0.14 0.12 0.10 0.07 0.05 0.03 0.02 0.01 0.01 0.00 0.00 0.00 0.00 0.00 0.00 0.00 0.00 0.01 0.01 0.01 0.01 0.00 0.00 0.00 0.00 0.00 0.00 0.00 0.00 0.00 0.00 0.00
0.17 0.20 0.22 0.22 0.22 0.23 0.21 0.17 0.14 0.13 0.12 0.10 0.07 0.04 0.03 0.01 0.01 0.01 0.00 0.00 0.00 0.00 0.00 0.00 0.00 0.00 0.00 0.00 0.00 0.00 0.00 0.00 0.00 0.00 0.00 0.00 0.00 0.00 0.00 0.00 0.00 0.00 0.00
0.21 0.23 0.24 0.25 0.24 0.22 0.17 0.12 0.09 0.07 0.06 0.04 0.02 0.01 0.01 0.00 0.00 0.00 0.00 0.00 0.00 0.00 0.00 0.00 0.00 0.00 0.00 0.00 0.00 0.00 0.00 0.00 0.01 0.01 0.00 0.00 0.00 0.00 0.01 0.00 0.00 0.00 0.00
MSLP
1017.74 1017.97 1018.22 1018.47 1018.72 1018.99 1019.25 1019.51 1019.74 1019.94 1020.08 1020.18 1020.23 1020.25 1020.27 1020.32 1020.41 1020.57 1020.80 1021.08 1021.38 1021.68 1021.94 1022.15 1022.29 1022.37 1022.41 1022.41 1022.42 1022.42 1022.44 1022.46 1022.49 1022.51 1022.51 1022.50 1022.46 1022.40 1022.31 1022.20 1022.07 1021.92 1021.74
1017.36 1017.59 1017.84 1018.10 1018.38 1018.68 1018.99 1019.29 1019.59 1019.84 1020.06 1020.21 1020.32 1020.38 1020.44 1020.50 1020.61 1020.77 1020.98 1021.25 1021.55 1021.85 1022.13 1022.36 1022.52 1022.63 1022.68 1022.69 1022.68 1022.66 1022.65 1022.65 1022.65 1022.65 1022.66 1022.65 1022.64 1022.61 1022.55 1022.47 1022.37 1022.23 1022.06
1016.98 1017.21 1017.47 1017.75 1018.05 1018.38 1018.73 1019.09 1019.45 1019.77 1020.06 1020.29 1020.46 1020.58 1020.67 1020.75 1020.86 1021.00 1021.20 1021.44 1021.72 1022.00 1022.27 1022.51 1022.69 1022.82 1022.88 1022.90 1022.89 1022.86 1022.83 1022.79 1022.77 1022.76 1022.75 1022.75 1022.74 1022.73 1022.70 1022.65 1022.57 1022.45 1022.30
1016.55 1016.81 1017.08 1017.37 1017.70 1018.06 1018.45 1018.85 1019.27 1019.67 1020.02 1020.33 1020.57 1020.75 1020.89 1021.00 1021.11 1021.24 1021.40 1021.61 1021.85 1022.11 1022.37 1022.61 1022.80 1022.94 1023.03 1023.07 1023.06 1023.03 1022.98 1022.93 1022.89 1022.85 1022.83 1022.81 1022.80 1022.78 1022.76 1022.72 1022.65 1022.55 1022.42
1016.07 1016.35 1016.63 1016.95 1017.29 1017.67 1018.08 1018.53 1018.99 1019.45 1019.88 1020.26 1020.57 1020.82 1021.00 1021.14 1021.26 1021.39 1021.53 1021.71 1021.92 1022.16 1022.41 1022.65 1022.86 1023.02 1023.14 1023.20 1023.22 1023.20 1023.15 1023.09 1023.02 1022.96 1022.90 1022.86 1022.82 1022.78 1022.74 1022.69 1022.62 1022.52 1022.40
1015.51 1015.80 1016.10 1016.42 1016.77 1017.16 1017.59 1018.06 1018.55 1019.06 1019.54 1019.99 1020.37 1020.68 1020.92 1021.10 1021.24 1021.37 1021.51 1021.68 1021.88 1022.11 1022.36 1022.62 1022.85 1023.05 1023.21 1023.31 1023.36 1023.36 1023.33 1023.26 1023.18 1023.09 1022.99 1022.90 1022.82 1022.73 1022.65 1022.57 1022.47 1022.37 1022.25
1014.85 1015.15 1015.46 1015.79 1016.14 1016.52 1016.95 1017.43 1017.94 1018.47 1018.99 1019.48 1019.91 1020.28 1020.57 1020.79 1020.97 1021.13 1021.29 1021.47 1021.69 1021.94 1022.22 1022.51 1022.79 1023.04 1023.25 1023.40 1023.50 1023.53 1023.51 1023.45 1023.36 1023.23 1023.10 1022.96 1022.81 1022.66 1022.52 1022.39 1022.26 1022.13 1021.99
1014.11 1014.41 1014.72 1015.04 1015.38 1015.76 1016.18 1016.65 1017.16 1017.69 1018.23 1018.74 1019.21 1019.61 1019.94 1020.21 1020.44 1020.63 1020.84 1021.06 1021.33 1021.63 1021.96 1022.31 1022.66 1022.97 1023.25 1023.46 1023.60 1023.68 1023.69 1023.64 1023.53 1023.39 1023.21 1023.01 1022.80 1022.59 1022.38 1022.19 1022.01 1021.84 1021.69
1013.32 1013.61 1013.91 1014.23 1014.56 1014.93 1015.33 1015.79 1016.28 1016.80 1017.33 1017.84 1018.31 1018.73 1019.09 1019.40 1019.66 1019.92 1020.18 1020.47 1020.80 1021.18 1021.59 1022.03 1022.45 1022.85 1023.19 1023.47 1023.67 1023.79 1023.83 1023.79 1023.68 1023.52 1023.31 1023.07 1022.81 1022.53 1022.26 1022.01 1021.77 1021.57 1021.39
1012.51 1012.79 1013.09 1013.40 1013.73 1014.08 1014.48 1014.91 1015.39 1015.88 1016.38 1016.87 1017.33 1017.74 1018.11 1018.44 1018.75 1019.05 1019.38 1019.75 1020.18 1020.65 1021.16 1021.68 1022.20 1022.67 1023.09 1023.43 1023.68 1023.84 1023.91 1023.89 1023.79 1023.62 1023.39 1023.12 1022.82 1022.50 1022.18 1021.87 1021.60 1021.35 1021.15
1011.74 1012.01 1012.30 1012.60 1012.93 1013.29 1013.68 1014.10 1014.55 1015.02 1015.49 1015.95 1016.38 1016.77 1017.13 1017.47 1017.80 1018.16 1018.56 1019.01 1019.53 1020.10 1020.70 1021.32 1021.92 1022.47 1022.95 1023.34 1023.63 1023.82 1023.91 1023.91 1023.82 1023.66 1023.43 1023.15 1022.84 1022.50 1022.15 1021.81 1021.49 1021.22 1020.98
1011.03 1011.28 1011.57 1011.89 1012.23 1012.59 1012.99 1013.41 1013.85 1014.29 1014.73 1015.15 1015.55 1015.92 1016.26 1016.61 1016.97 1017.36 1017.82 1018.35 1018.95 1019.61 1020.30 1021.00 1021.66 1022.27 1022.79 1023.21 1023.52 1023.73 1023.83 1023.84 1023.77 1023.62 1023.41 1023.15 1022.84 1022.50 1022.14 1021.79 1021.45 1021.15 1020.88
1010.40 1010.65 1010.94 1011.27 1011.62 1012.01 1012.42 1012.85 1013.29 1013.72 1014.15 1014.55 1014.92 1015.27 1015.61 1015.96 1016.33 1016.77 1017.28 1017.87 1018.54 1019.26 1020.02 1020.77 1021.47 1022.10 1022.64 1023.06 1023.37 1023.57 1023.68 1023.69 1023.63 1023.50 1023.31 1023.07 1022.79 1022.47 1022.13 1021.77 1021.43 1021.10 1020.81
1009.86 1010.11 1010.41 1010.75 1011.13 1011.54 1011.97 1012.41 1012.87 1013.31 1013.74 1014.14 1014.51 1014.86 1015.21 1015.58 1015.98 1016.45 1017.00 1017.64 1018.35 1019.11 1019.89 1020.66 1021.37 1021.99 1022.51 1022.90 1023.19 1023.36 1023.44 1023.45 1023.39 1023.27 1023.11 1022.90 1022.65 1022.36 1022.04 1021.70 1021.36 1021.02 1020.70
1009.45 1009.69 1010.00 1010.35 1010.74 1011.17 1011.62 1012.09 1012.57 1013.04 1013.50 1013.92 1014.33 1014.71 1015.09 1015.49 1015.93 1016.43 1017.02 1017.68 1018.40 1019.17 1019.94 1020.68 1021.36 1021.93 1022.40 1022.74 1022.97 1023.10 1023.14 1023.12 1023.05 1022.94 1022.79 1022.60 1022.37 1022.11 1021.82 1021.50 1021.16 1020.82 1020.49
1009.19 1009.43 1009.73 1010.08 1010.48 1010.92 1011.39 1011.89 1012.40 1012.91 1013.41 1013.88 1014.34 1014.78 1015.21 1015.66 1016.14 1016.69 1017.29 1017.95 1018.67 1019.40 1020.13 1020.81 1021.41 1021.91 1022.29 1022.56 1022.71 1022.78 1022.77 1022.71 1022.61 1022.48 1022.33 1022.15 1021.94 1021.70 1021.42 1021.12 1020.80 1020.46 1020.12
1009.14 1009.36 1009.65 1009.99 1010.38 1010.82 1011.30 1011.82 1012.36 1012.91 1013.46 1014.01 1014.53 1015.04 1015.54 1016.05 1016.58 1017.15 1017.76 1018.40 1019.07 1019.74 1020.39 1020.98 1021.48 1021.88 1022.16 1022.34 1022.41 1022.40 1022.33 1022.22 1022.08 1021.92 1021.75 1021.55 1021.34 1021.10 1020.82 1020.53 1020.22 1019.89 1019.56
1009.34 1009.55 1009.82 1010.14 1010.52 1010.94 1011.42 1011.94 1012.49 1013.08 1013.68 1014.28 1014.87 1015.45 1016.02 1016.58 1017.15 1017.73 1018.32 1018.92 1019.52 1020.10 1020.64 1021.12 1021.51 1021.79 1021.97 1022.05 1022.04 1021.96 1021.84 1021.67 1021.49 1021.29 1021.07 1020.84 1020.60 1020.33 1020.05 1019.75 1019.44 1019.12 1018.81
1009.84 1010.04 1010.29 1010.59 1010.93 1011.33 1011.78 1012.29 1012.85 1013.45 1014.07 1014.71 1015.35 1015.98 1016.59 1017.19 1017.77 1018.33 1018.88 1019.41 1019.92 1020.39 1020.81 1021.16 1021.42 1021.60 1021.68 1021.68 1021.61 1021.48 1021.31 1021.10 1020.87 1020.62 1020.36 1020.08 1019.78 1019.47 1019.15 1018.83 1018.51 1018.20 1017.91
1010.66 1010.85 1011.08 1011.34 1011.66 1012.02 1012.43 1012.91 1013.44 1014.03 1014.65 1015.30 1015.95 1016.59 1017.21 1017.80 1018.35 1018.87 1019.35 1019.79 1020.19 1020.54 1020.83 1021.05 1021.21 1021.29 1021.30 1021.24 1021.13 1020.97 1020.77 1020.54 1020.28 1019.98 1019.67 1019.32 1018.96 1018.59 1018.21 1017.84 1017.50 1017.19 1016.90
1011.75 1011.94 1012.16 1012.40 1012.68 1012.99 1013.36 1013.79 1014.28 1014.82 1015.40 1016.01 1016.63 1017.24 1017.82 1018.36 1018.86 1019.30 1019.69 1020.02 1020.29 1020.51 1020.68 1020.79 1020.85 1020.86 1020.83 1020.75 1020.63 1020.47 1020.27 1020.03 1019.75 1019.43 1019.06 1018.65 1018.22 1017.76 1017.31 1016.89 1016.50 1016.15 1015.86
1013.05 1013.24 1013.45 1013.68 1013.92 1014.20 1014.51 1014.88 1015.29 1015.76 1016.27 1016.80 1017.34 1017.87 1018.38 1018.84 1019.24 1019.58 1019.86 1020.07 1020.23 1020.33 1020.39 1020.41 1020.40 1020.37 1020.31 1020.24 1020.14 1020.01 1019.83 1019.61 1019.33 1018.99 1018.58 1018.12 1017.61 1017.07 1016.54 1016.03 1015.57 1015.18 1014.85
1014.44 1014.63 1014.84 1015.05 1015.27 1015.50 1015.76 1016.05 1016.39 1016.76 1017.17 1017.59 1018.03 1018.45 1018.85 1019.20 1019.49 1019.72 1019.89 1019.99 1020.03 1020.04 1020.01 1019.96 1019.91 1019.85 1019.80 1019.75 1019.69 1019.60 1019.48 1019.29 1019.03 1018.68 1018.25 1017.74 1017.16 1016.55 1015.92 1015.33 1014.78 1014.31 1013.93
1015.76 1015.97 1016.17 1016.37 1016.56 1016.76 1016.96 1017.19 1017.43 1017.70 1018.00 1018.31 1018.62 1018.92 1019.20 1019.44 1019.62 1019.74 1019.80 1019.81 1019.77 1019.69 1019.60 1019.51 1019.43 1019.38 1019.34 1019.32 1019.30 1019.27 1019.19 1019.05 1018.82 1018.48 1018.04 1017.49 1016.86 1016.18 1015.48 1014.79 1014.16 1013.60 1013.13
1016.92 1017.12 1017.32 1017.50 1017.68 1017.84 1017.99 1018.15 1018.31 1018.49 1018.68 1018.87 1019.07 1019.26 1019.42 1019.56 1019.64 1019.68 1019.66 1019.60 1019.50 1019.37 1019.25 1019.13 1019.04 1018.98 1018.96 1018.96 1018.98 1018.99 1018.95 1018.84 1018.64 1018.31 1017.87 1017.31 1016.65 1015.92 1015.16 1014.40 1013.68 1013.03 1012.47
1017.82 1018.02 1018.20 1018.37 1018.52 1018.65 1018.76 1018.86 1018.96 1019.05 1019.15 1019.25 1019.36 1019.45 1019.53 1019.58 1019.60 1019.58 1019.51 1019.41 1019.28 1019.13 1018.98 1018.84 1018.74 1018.68 1018.66 1018.67 1018.69 1018.71 1018.70 1018.61 1018.42 1018.11 1017.68 1017.12 1016.45 1015.70 1014.90 1014.09 1013.31 1012.58 1011.92
Thickness
5680 5679 5677 5674 5672 5669 5666 5664 5663 5661 5659 5657 5656 5655 5654 5652 5650 5648 5643 5640 5638 5636 5633 5630 5628 5626 5624 5622 5620 5618 5617 5616 5615 5615 5614 5614 5614 5614 5615 5615 5616 5617 5618
5678 5676 5674 5671 5669 5666 5664 5661 5659 5656 5654 5652 5651 5649 5648 5646 5645 5642 5639 5634 5631 5629 5626 5623 5621 5619 5617 5615 5613 5611 5609 5608 5607 5607 5607 5606 5606 5606 5607 5607 5608 5609 5610
5676 5673 5671 5668 5666 5663 5659 5656 5654 5651 5648 5646 5645 5643 5642 5640 5638 5635 5632 5629 5625 5622 5619 5617 5614 5611 5609 5607 5606 5604 5602 5601 5600 5599 5598 5598 5598 5598 5598 5599 5599 5600 5602
5674 5671 5669 5666 5662 5659 5656 5653 5650 5646 5643 5641 5640 5637 5635 5632 5631 5629 5625 5623 5620 5617 5613 5610 5607 5604 5602 5599 5598 5597 5595 5594 5592 5591 5590 5590 5589 5589 5589 5590 5590 5591 5592
5672 5669 5667 5663 5659 5655 5652 5649 5646 5643 5640 5636 5634 5631 5630 5627 5625 5622 5620 5617 5614 5611 5608 5602 5600 5597 5594 5592 5591 5590 5589 5587 5586 5584 5583 5582 5581 5581 5581 5581 5582 5582 5583
5669 5666 5664 5660 5656 5652 5649 5645 5641 5637 5635 5631 5627 5624 5622 5621 5619 5617 5615 5611 5608 5605 5602 5597 5594 5590 5587 5585 5583 5582 5581 5580 5579 5578 5576 5575 5574 5574 5574 5574 5574 5574 5575
5664 5662 5661 5658 5654 5651 5647 5643 5638 5632 5628 5624 5620 5617 5615 5613 5613 5611 5609 5606 5603 5599 5596 5592 5589 5585 5582 5579 5576 5575 5573 5572 5571 5570 5569 5568 5568 5567 5567 5566 5566 5566 5567
5661 5659 5658 5656 5652 5648 5644 5640 5635 5630 5624 5620 5619 5614 5612 5609 5607 5606 5604 5601 5599 5594 5590 5586 5583 5579 5576 5573 5570 5567 5565 5564 5563 5562 5561 5560 5560 5559 5559 5559 5559 5559 5559
5656 5654 5652 5651 5648 5645 5643 5638 5632 5628 5623 5616 5618 5617 5615 5616 5610 5603 5599 5596 5593 5589 5585 5580 5576 5572 5569 5565 5562 5559 5556 5554 5553 5552 5552 5551 5551 5551 5551 5551 5551 5551 5551
5652 5649 5646 5644 5642 5639 5638 5635 5630 5627 5622 5614 5609 5609 5612 5615 5608 5601 5593 5589 5586 5583 5579 5574 5569 5564 5560 5557 5553 5549 5546 5544 5542 5541 5541 5540 5540 5540 5541 5541 5541 5541 5541
5648 5644 5641 5637 5635 5633 5632 5629 5625 5622 5620 5615 5609 5604 5600 5598 5601 5602 5596 5585 5578 5576 5572 5567 5562 5556 5551 5547 5543 5539 5535 5533 5531 5530 5529 5529 5529 5530 5530 5530 5531 5530 5530
5643 5639 5635 5631 5629 5627 5626 5624 5620 5616 5614 5612 5607 5603 5601 5597 5596 5595 5595 5585 5578 5571 5563 5558 5553 5547 5542 5537 5532 5528 5524 5521 5519 5518 5518 5518 5518 5519 5518 5518 5518 5517 5517
5635 5633 5628 5625 5622 5620 5618 5616 5613 5610 5607 5605 5603 5600 5598 5597 5594 5591 5588 5580 5572 5562 5553 5548 5543 5537 5532 5526 5521 5516 5513 5510 5507 5506 5506 5506 5506 5506 5505 5504 5503 5503 5503
5626 5623 5618 5615 5613 5610 5607 5605 5604 5602 5599 5596 5594 5591 5587 5584 5581 5580 5577 5569 5560 5551 5545 5541 5531 5526 5521 5515 5510 5505 5503 5499 5496 5494 5493 5492 5491 5491 5490 5490 5489 5488 5487
5610 5609 5606 5603 5600 5598 5596 5593 5592 5590 5588 5585 5582 5578 5574 5569 5566 5564 5563 5561 5556 5547 5537 5527 5518 5513 5508 5503 5498 5494 5492 5489 5485 5482 5479 5478 5476 5476 5475 5474 5473 5472 5471
5590 5589 5588 5586 5585 5583 5582 5580 5578 5577 5574 5571 5568 5564 5560 5556 5553 5550 5548 5544 5540 5534 5522 5512 5505 5499 5493 5490 5486 5482 5479 5476 5473 5470 5466 5464 5462 5461 5461 5459 5458 5457 5455
5568 5566 5566 5566 5566 5565 5565 5564 5563 5562 5559 5556 5554 5551 5547 5543 5539 5536 5532 5527 5521 5516 5507 5498 5491 5485 5480 5476 5473 5469 5465 5462 5461 5457 5453 5451 5448 5446 5445 5444 5442 5440 5438
5544 5543 5543 5544 5545 5545 5546 5547 5547 5546 5545 5543 5541 5537 5534 5530 5524 5520 5515 5510 5504 5498 5492 5484 5478 5473 5467 5463 5459 5455 5451 5448 5445 5442 5439 5436 5433 5431 5429 5427 5425 5423 5420
5522 5521 5522 5523 5524 5525 5527 5528 5529 5529 5529 5528 5526 5523 5519 5515 5509 5505 5500 5493 5488 5482 5476 5470 5466 5461 5455 5450 5446 5442 5438 5434 5431 5427 5424 5421 5418 5415 5412 5410 5408 5405 5401
5501 5501 5502 5502 5503 5505 5507 5509 5510 5511 5510 5509 5507 5505 5503 5500 5495 5490 5484 5479 5473 5467 5461 5456 5453 5449 5444 5439 5433 5429 5426 5421 5416 5412 5408 5405 5402 5398 5394 5392 5389 5386 5382
5483 5483 5483 5483 5484 5485 5487 5489 5490 5491 5491 5490 5488 5487 5485 5482 5479 5474 5470 5464 5459 5454 5450 5445 5441 5436 5432 5427 5422 5416 5410 5406 5401 5396 5393 5389 5384 5381 5377 5374 5371 5368 5365
5468 5467 5466 5467 5468 5469 5470 5472 5473 5474 5474 5474 5472 5470 5468 5466 5463 5460 5456 5452 5447 5443 5438 5432 5427 5423 5419 5413 5406 5399 5393 5388 5383 5379 5376 5372 5365 5364 5360 5357 5354 5351 5349
5456 5454 5453 5453 5454 5455 5457 5458 5459 5459 5459 5458 5457 5455 5454 5451 5448 5446 5442 5438 5434 5429 5424 5419 5414 5409 5403 5397 5389 5381 5374 5369 5364 5359 5356 5357 5349 5349 5345 5343 5339 5337 5337
5446 5443 5442 5442 5443 5443 5445 5446 5446 5446 5445 5444 5444 5442 5440 5438 5436 5433 5429 5425 5420 5415 5410 5405 5399 5393 5386 5379 5371 5364 5358 5352 5347 5341 5338 5341 5338 5337 5335 5331 5329 5327 5326
5438 5435 5433 5432 5432 5432 5433 5434 5435 5435 5434 5433 5432 5431 5429 5427 5424 5421 5418 5414 5409 5404 5397 5390 5384 5378 5371 5363 5355 5348 5340 5334 5332 5327 5324 5325 5326 5327 5326 5323 5321 5319 5318
5432 5429 5427 5425 5425 5425 5426 5426 5427 5428 5427 5426 5424 5422 5419 5417 5414 5411 5408 5404 5398 5392 5385 5378 5371 5364 5356 5348 5339 5332 5325 5318 5313 5311 5312 5311 5311 5309 5315 5318 5314 5312 5312